| time (UTC) | temp F | wind direction | speed MPH | gust MPH | rain 1hr in | rain 24hr in | rain mn in | humidity % | barometer mb |
| 20260507194652 | 62 | 288 | 6.0 | 20.0 | 0.00 | 0.01 | 0.00 | 26 | 1017.5 |
| 20260507193152 | 62 | 29 | 2.0 | 10.0 | 0.00 | 0.01 | 0.00 | 26 | 1017.6 |
| 20260507192652 | 62 | 309 | 5.0 | 10.0 | 0.00 | 0.01 | 0.00 | 26 | 1017.7 |
| 20260507192152 | 62 | 339 | 1.0 | 12.0 | 0.00 | 0.01 | 0.00 | 25 | 1017.6 |
| 20260507191153 | 62 | 305 | 1.0 | 3.0 | 0.00 | 0.01 | 0.00 | 24 | 1017.7 |
| 20260507190152 | 63 | 337 | 0.0 | 3.0 | 0.00 | 0.01 | 0.00 | 23 | 1017.8 |
| 20260507185652 | 62 | 303 | 1.0 | 3.0 | 0.00 | 0.01 | 0.00 | 25 | 1017.9 |
| 20260507185152 | 62 | 26 | 0.0 | 2.0 | 0.00 | 0.01 | 0.00 | 23 | 1017.9 |
| 20260507184652 | 61 | 346 | 1.0 | 3.0 | 0.00 | 0.01 | 0.00 | 24 | 1017.9 |
| 20260507184153 | 62 | 2 | 0.0 | 1.0 | 0.00 | 0.01 | 0.00 | 23 | 1017.9 |
| 20260507183653 | 61 | 147 | 0.0 | 2.0 | 0.00 | 0.01 | 0.00 | 24 | 1018.0 |
| 20260507182652 | 61 | 19 | 0.0 | 1.0 | 0.00 | 0.01 | 0.00 | 22 | 1018.0 |
| 20260507182153 | 61 | 122 | 0.0 | 1.0 | 0.00 | 0.01 | 0.00 | 23 | 1017.9 |
| 20260507181652 | 60 | 288 | 0.0 | 1.0 | 0.00 | 0.01 | 0.00 | 23 | 1017.9 |
| 20260507180652 | 60 | 53 | 0.0 | 1.0 | 0.00 | 0.01 | 0.00 | 24 | 1018.2 |
| 20260507180152 | 59 | 346 | 0.0 | 2.0 | 0.00 | 0.01 | 0.00 | 22 | 1018.3 |
| 20260507175652 | 60 | 322 | 1.0 | 6.0 | 0.00 | 0.01 | 0.00 | 23 | 1018.3 |
| 20260507175152 | 60 | 240 | 1.0 | 3.0 | 0.00 | 0.01 | 0.00 | 22 | 1018.4 |
| 20260507174653 | 59 | 213 | 2.0 | 5.0 | 0.00 | 0.01 | 0.00 | 22 | 1018.4 |
| 20260507174152 | 59 | 265 | 1.0 | 5.0 | 0.00 | 0.01 | 0.00 | 23 | 1018.5 |
| 20260507173652 | 59 | 287 | 1.0 | 3.0 | 0.00 | 0.01 | 0.00 | 22 | 1018.6 |
| 20260507173152 | 59 | 209 | 2.0 | 5.0 | 0.00 | 0.01 | 0.00 | 23 | 1018.6 |
| 20260507172653 | 59 | 276 | 3.0 | 8.0 | 0.00 | 0.01 | 0.00 | 23 | 1018.8 |
| 20260507172153 | 59 | 233 | 2.0 | 7.0 | 0.00 | 0.01 | 0.00 | 21 | 1018.7 |
| 20260507171652 | 59 | 288 | 5.0 | 8.0 | 0.00 | 0.01 | 0.00 | 21 | 1018.8 |
| 20260507171153 | 58 | 272 | 1.0 | 6.0 | 0.00 | 0.01 | 0.00 | 23 | 1018.8 |
| 20260507170653 | 58 | 266 | 4.0 | 7.0 | 0.00 | 0.01 | 0.00 | 22 | 1018.8 |
| 20260507170153 | 58 | 274 | 4.0 | 8.0 | 0.00 | 0.01 | 0.00 | 24 | 1018.9 |
| 20260507165652 | 58 | 317 | 2.0 | 8.0 | 0.00 | 0.01 | 0.00 | 23 | 1019.0 |
| 20260507165152 | 57 | 319 | 3.0 | 12.0 | 0.00 | 0.01 | 0.00 | 23 | 1019.0 |
| 20260507164652 | 57 | 297 | 5.0 | 9.0 | 0.00 | 0.01 | 0.00 | 22 | 1019.0 |
| 20260507164153 | 57 | 265 | 1.0 | 7.0 | 0.00 | 0.01 | 0.00 | 24 | 1019.0 |
| 20260507163152 | 56 | 350 | 4.0 | 7.0 | 0.00 | 0.01 | 0.00 | 24 | 1019.0 |
| 20260507162652 | 56 | 302 | 3.0 | 8.0 | 0.00 | 0.01 | 0.00 | 25 | 1019.0 |
| 20260507162152 | 56 | 291 | 5.0 | 12.0 | 0.00 | 0.01 | 0.00 | 25 | 1019.0 |
| 20260507161653 | 55 | 302 | 5.0 | 12.0 | 0.00 | 0.01 | 0.00 | 25 | 1019.0 |
| 20260507160652 | 55 | 334 | 5.0 | 10.0 | 0.00 | 0.01 | 0.00 | 27 | 1019.2 |
| 20260507160152 | 55 | 302 | 4.0 | 10.0 | 0.00 | 0.01 | 0.00 | 28 | 1019.2 |
| 20260507155652 | 54 | 299 | 5.0 | 10.0 | 0.00 | 0.01 | 0.00 | 31 | 1019.2 |
| 20260507155153 | 54 | 316 | 7.0 | 12.0 | 0.00 | 0.01 | 0.00 | 30 | 1019.3 |
| 20260507154653 | 54 | 319 | 6.0 | 15.0 | 0.00 | 0.01 | 0.00 | 31 | 1019.3 |
| 20260507154153 | 54 | 304 | 6.0 | 12.0 | 0.00 | 0.01 | 0.00 | 31 | 1019.2 |
| 20260507153653 | 53 | 306 | 8.0 | 12.0 | 0.00 | 0.01 | 0.00 | 31 | 1019.2 |
| 20260507153153 | 53 | 315 | 6.0 | 12.0 | 0.00 | 0.01 | 0.00 | 33 | 1019.3 |
| 20260507152653 | 52 | 306 | 9.0 | 15.0 | 0.00 | 0.01 | 0.00 | 33 | 1019.3 |
| 20260507152153 | 52 | 333 | 6.0 | 12.0 | 0.00 | 0.01 | 0.00 | 34 | 1019.3 |
| 20260507151653 | 52 | 310 | 6.0 | 12.0 | 0.00 | 0.01 | 0.00 | 34 | 1019.3 |
| 20260507150652 | 51 | 322 | 5.0 | 12.0 | 0.00 | 0.01 | 0.00 | 36 | 1019.3 |
| 20260507150153 | 51 | 302 | 6.0 | 12.0 | 0.00 | 0.01 | 0.00 | 37 | 1019.3 |
| 20260507145153 | 50 | 300 | 7.0 | 12.0 | 0.00 | 0.01 | 0.00 | 37 | 1019.3 |
| 20260507144653 | 49 | 316 | 5.0 | 12.0 | 0.00 | 0.01 | 0.00 | 38 | 1019.3 |
| 20260507144153 | 49 | 324 | 6.0 | 13.0 | 0.00 | 0.01 | 0.00 | 39 | 1019.3 |
| 20260507143653 | 49 | 299 | 8.0 | 16.0 | 0.00 | 0.01 | 0.00 | 38 | 1019.4 |
| 20260507143152 | 48 | 300 | 9.0 | 18.0 | 0.00 | 0.01 | 0.00 | 39 | 1019.3 |
| 20260507141653 | 47 | 329 | 6.0 | 10.0 | 0.00 | 0.01 | 0.00 | 39 | 1019.3 |
| 20260507141153 | 47 | 291 | 5.0 | 12.0 | 0.00 | 0.01 | 0.00 | 39 | 1019.3 |
| 20260507140653 | 46 | 336 | 5.0 | 8.0 | 0.00 | 0.01 | 0.00 | 40 | 1019.3 |
| 20260507140153 | 46 | 318 | 5.0 | 9.0 | 0.00 | 0.01 | 0.00 | 40 | 1019.3 |
| 20260507135653 | 45 | 324 | 4.0 | 9.0 | 0.00 | 0.01 | 0.00 | 41 | 1019.3 |
| 20260507134653 | 44 | 298 | 4.0 | 8.0 | 0.00 | 0.01 | 0.00 | 42 | 1019.3 |
| 20260507134153 | 44 | 311 | 3.0 | 9.0 | 0.00 | 0.01 | 0.00 | 43 | 1019.2 |
| 20260507133153 | 43 | 317 | 4.0 | 9.0 | 0.00 | 0.01 | 0.00 | 44 | 1019.1 |
| 20260507132653 | 42 | 301 | 3.0 | 6.0 | 0.00 | 0.01 | 0.00 | 45 | 1019.1 |
| 20260507132153 | 42 | 303 | 4.0 | 10.0 | 0.00 | 0.01 | 0.00 | 45 | 1019.0 |
| 20260507131653 | 42 | 310 | 5.0 | 9.0 | 0.00 | 0.01 | 0.00 | 45 | 1019.0 |
| 20260507131153 | 41 | 326 | 3.0 | 6.0 | 0.00 | 0.01 | 0.00 | 46 | 1018.9 |
| 20260507130652 | 41 | 319 | 3.0 | 8.0 | 0.00 | 0.01 | 0.00 | 46 | 1018.9 |
| 20260507130152 | 41 | 309 | 3.0 | 6.0 | 0.00 | 0.01 | 0.00 | 46 | 1019.0 |
| 20260507125153 | 40 | 321 | 3.0 | 6.0 | 0.00 | 0.01 | 0.00 | 47 | 1018.9 |
| 20260507124653 | 39 | 302 | 4.0 | 7.0 | 0.00 | 0.01 | 0.00 | 48 | 1018.8 |
| 20260507123653 | 38 | 305 | 1.0 | 5.0 | 0.00 | 0.01 | 0.00 | 53 | 1018.8 |
| 20260507123153 | 34 | 0 | 0.0 | 0.0 | 0.00 | 0.01 | 0.00 | 55 | 1018.7 |
| 20260507122653 | 34 | 0 | 0.0 | 0.0 | 0.00 | 0.01 | 0.00 | 55 | 1018.7 |
| 20260507122153 | 34 | 0 | 0.0 | 0.0 | 0.00 | 0.01 | 0.00 | 55 | 1018.7 |
| 20260507121153 | 34 | 0 | 0.0 | 0.0 | 0.00 | 0.01 | 0.00 | 55 | 1018.7 |
| 20260507120653 | 34 | 0 | 0.0 | 0.0 | 0.00 | 0.01 | 0.00 | 55 | 1018.7 |
| 20260507120153 | 34 | 0 | 0.0 | 0.0 | 0.00 | 0.01 | 0.00 | 55 | 1018.6 |
| 20260507115653 | 34 | 0 | 0.0 | 0.0 | 0.00 | 0.01 | 0.00 | 55 | 1018.6 |
| 20260507115153 | 34 | 0 | 0.0 | 0.0 | 0.00 | 0.01 | 0.00 | 55 | 1018.6 |
| 20260507114653 | 34 | 0 | 0.0 | 0.0 | 0.00 | 0.01 | 0.00 | 55 | 1018.7 |
| 20260507114153 | 34 | 0 | 0.0 | 0.0 | 0.00 | 0.01 | 0.00 | 55 | 1018.7 |
| 20260507113653 | 34 | 0 | 0.0 | 0.0 | 0.00 | 0.01 | 0.00 | 55 | 1018.7 |
| 20260507113153 | 34 | 0 | 0.0 | 0.0 | 0.00 | 0.01 | 0.00 | 55 | 1018.8 |
| 20260507112652 | 34 | 0 | 0.0 | 0.0 | 0.00 | 0.01 | 0.00 | 55 | 1018.7 |
| 20260507112153 | 34 | 0 | 0.0 | 0.0 | 0.00 | 0.01 | 0.00 | 55 | 1018.8 |
| 20260507111652 | 34 | 0 | 0.0 | 0.0 | 0.00 | 0.01 | 0.00 | 55 | 1018.8 |
| 20260507111153 | 34 | 0 | 0.0 | 0.0 | 0.00 | 0.01 | 0.00 | 55 | 1018.7 |
| 20260507110153 | 34 | 0 | 0.0 | 0.0 | 0.00 | 0.01 | 0.00 | 55 | 1018.8 |
| 20260507105653 | 34 | 0 | 0.0 | 0.0 | 0.00 | 0.01 | 0.00 | 55 | 1018.8 |
| 20260507105153 | 34 | 0 | 0.0 | 0.0 | 0.00 | 0.01 | 0.00 | 55 | 1018.9 |
| 20260507104653 | 34 | 0 | 0.0 | 0.0 | 0.00 | 0.01 | 0.00 | 55 | 1018.8 |
| 20260507103653 | 34 | 0 | 0.0 | 0.0 | 0.00 | 0.01 | 0.00 | 55 | 1018.7 |
| 20260507103153 | 34 | 0 | 0.0 | 0.0 | 0.00 | 0.01 | 0.00 | 55 | 1018.7 |
| 20260507102653 | 34 | 0 | 0.0 | 0.0 | 0.00 | 0.01 | 0.00 | 55 | 1018.8 |
| 20260507101653 | 34 | 0 | 0.0 | 0.0 | 0.00 | 0.01 | 0.00 | 55 | 1019.0 |
| 20260507101153 | 34 | 1 | 0.0 | 2.0 | 0.00 | 0.01 | 0.00 | 55 | 1019.0 |
| 20260507100654 | 34 | 300 | 2.0 | 2.0 | 0.00 | 0.01 | 0.00 | 55 | 1019.0 |
| 20260507100154 | 34 | 300 | 2.0 | 5.0 | 0.00 | 0.01 | 0.00 | 55 | 1019.1 |
| 20260507095653 | 35 | 302 | 3.0 | 6.0 | 0.00 | 0.01 | 0.00 | 55 | 1019.1 |
| 20260507094654 | 34 | 299 | 2.0 | 6.0 | 0.00 | 0.01 | 0.00 | 58 | 1019.0 |
| 20260507094154 | 34 | 305 | 3.0 | 6.0 | 0.00 | 0.01 | 0.00 | 59 | 1019.0 |
| 20260507093653 | 34 | 299 | 3.0 | 7.0 | 0.00 | 0.01 | 0.00 | 60 | 1019.1 |
| 20260507093154 | 33 | 324 | 1.0 | 2.0 | 0.00 | 0.01 | 0.00 | 61 | 1019.0 |
| 20260507092653 | 33 | 314 | 0.0 | 1.0 | 0.00 | 0.01 | 0.00 | 62 | 1019.0 |
| 20260507092154 | 33 | 348 | 0.0 | 2.0 | 0.00 | 0.01 | 0.00 | 62 | 1019.0 |
| 20260507091653 | 33 | 336 | 1.0 | 3.0 | 0.00 | 0.01 | 0.00 | 63 | 1019.0 |
| 20260507091154 | 33 | 341 | 1.0 | 6.0 | 0.00 | 0.01 | 0.00 | 64 | 1019.0 |
| 20260507090653 | 33 | 340 | 1.0 | 5.0 | 0.00 | 0.01 | 0.00 | 65 | 1019.1 |
| 20260507090154 | 33 | 341 | 0.0 | 3.0 | 0.00 | 0.01 | 0.00 | 66 | 1019.3 |
| 20260507085653 | 32 | 342 | 1.0 | 3.0 | 0.00 | 0.01 | 0.00 | 68 | 1019.2 |
| 20260507085153 | 32 | 332 | 0.0 | 3.0 | 0.00 | 0.01 | 0.00 | 71 | 1019.3 |
| 20260507084653 | 32 | 346 | 1.0 | 5.0 | 0.00 | 0.01 | 0.00 | 72 | 1019.2 |
| 20260507084153 | 32 | 336 | 0.0 | 3.0 | 0.00 | 0.01 | 0.00 | 73 | 1019.2 |
| 20260507083653 | 31 | 334 | 0.0 | 1.0 | 0.00 | 0.01 | 0.00 | 75 | 1019.2 |
| 20260507083154 | 31 | 333 | 0.0 | 2.0 | 0.00 | 0.01 | 0.00 | 75 | 1019.2 |
| 20260507082654 | 31 | 304 | 1.0 | 5.0 | 0.00 | 0.01 | 0.00 | 78 | 1019.4 |
| 20260507082154 | 30 | 300 | 1.0 | 3.0 | 0.00 | 0.01 | 0.00 | 83 | 1019.4 |
| 20260507081653 | 29 | 299 | 0.0 | 3.0 | 0.00 | 0.01 | 0.00 | 90 | 1019.6 |
| 20260507081154 | 27 | 310 | 0.0 | 1.0 | 0.00 | 0.01 | 0.00 | 93 | 1019.5 |
| 20260507080654 | 26 | 26 | 0.0 | 0.0 | 0.00 | 0.01 | 0.00 | 93 | 1019.6 |
| 20260507080153 | 26 | 26 | 0.0 | 0.0 | 0.00 | 0.01 | 0.00 | 93 | 1019.7 |
| 20260507075653 | 27 | 26 | 0.0 | 0.0 | 0.00 | 0.01 | 0.00 | 93 | 1019.7 |
| 20260507075153 | 27 | 25 | 0.0 | 0.0 | 0.00 | 0.01 | 0.00 | 93 | 1019.8 |
| 20260507074653 | 27 | 25 | 0.0 | 0.0 | 0.00 | 0.01 | 0.00 | 93 | 1019.9 |
| 20260507074154 | 27 | 25 | 0.0 | 0.0 | 0.00 | 0.01 | 0.00 | 93 | 1019.9 |
| 20260507073653 | 27 | 26 | 0.0 | 0.0 | 0.00 | 0.01 | 0.00 | 93 | 1020.0 |
| 20260507072654 | 27 | 25 | 0.0 | 0.0 | 0.00 | 0.01 | 0.00 | 93 | 1020.0 |
| 20260507072153 | 27 | 25 | 0.0 | 0.0 | 0.00 | 0.01 | 0.00 | 93 | 1020.1 |
| 20260507071654 | 27 | 25 | 0.0 | 0.0 | 0.00 | 0.01 | 0.00 | 93 | 1020.1 |
| 20260507071154 | 27 | 25 | 0.0 | 0.0 | 0.00 | 0.01 | 0.00 | 93 | 1020.1 |
| 20260507070654 | 27 | 25 | 0.0 | 0.0 | 0.00 | 0.01 | 0.00 | 93 | 1020.1 |
| 20260507070153 | 28 | 25 | 0.0 | 0.0 | 0.00 | 0.01 | 0.00 | 93 | 1020.2 |
| 20260507065654 | 28 | 26 | 0.0 | 0.0 | 0.00 | 0.01 | 0.00 | 93 | 1020.2 |
| 20260507065153 | 28 | 26 | 0.0 | 0.0 | 0.00 | 0.01 | 0.00 | 94 | 1020.1 |
| 20260507064654 | 28 | 25 | 0.0 | 0.0 | 0.00 | 0.01 | 0.00 | 94 | 1020.2 |
| 20260507064153 | 28 | 26 | 0.0 | 0.0 | 0.00 | 0.01 | 0.00 | 94 | 1020.3 |
| 20260507063654 | 28 | 25 | 0.0 | 0.0 | 0.00 | 0.01 | 0.00 | 93 | 1020.3 |
| 20260507063153 | 28 | 26 | 0.0 | 0.0 | 0.00 | 0.01 | 0.00 | 94 | 1020.3 |
| 20260507062653 | 28 | 25 | 0.0 | 0.0 | 0.00 | 0.01 | 0.00 | 94 | 1020.2 |
| 20260507062153 | 28 | 25 | 0.0 | 0.0 | 0.00 | 0.01 | 0.00 | 94 | 1020.2 |
| 20260507061653 | 28 | 25 | 0.0 | 0.0 | 0.00 | 0.01 | 0.00 | 94 | 1020.1 |
| 20260507061154 | 28 | 25 | 0.0 | 0.0 | 0.00 | 0.01 | 0.00 | 94 | 1020.2 |
| 20260507060654 | 28 | 26 | 0.0 | 0.0 | 0.00 | 0.01 | 0.00 | 93 | 1020.1 |
| 20260507060154 | 28 | 25 | 0.0 | 0.0 | 0.00 | 0.01 | 0.00 | 93 | 1020.2 |
| 20260507055653 | 28 | 26 | 0.0 | 0.0 | 0.00 | 0.01 | 0.01 | 93 | 1020.2 |
| 20260507055153 | 28 | 25 | 0.0 | 0.0 | 0.00 | 0.01 | 0.01 | 93 | 1020.1 |
| 20260507054654 | 28 | 25 | 0.0 | 0.0 | 0.00 | 0.01 | 0.01 | 93 | 1020.1 |
| 20260507054153 | 29 | 26 | 0.0 | 0.0 | 0.00 | 0.01 | 0.01 | 93 | 1020.1 |
| 20260507053653 | 29 | 25 | 0.0 | 0.0 | 0.00 | 0.01 | 0.01 | 93 | 1020.1 |
| 20260507053154 | 29 | 25 | 0.0 | 0.0 | 0.00 | 0.01 | 0.01 | 93 | 1020.1 |
| 20260507052655 | 29 | 25 | 0.0 | 0.0 | 0.00 | 0.01 | 0.01 | 93 | 1020.1 |
| 20260507052153 | 29 | 25 | 0.0 | 0.0 | 0.00 | 0.01 | 0.01 | 93 | 1020.0 |
| 20260507051154 | 29 | 26 | 0.0 | 0.0 | 0.00 | 0.01 | 0.01 | 93 | 1020.0 |
| 20260507050654 | 29 | 26 | 0.0 | 0.0 | 0.00 | 0.01 | 0.01 | 93 | 1020.0 |
| 20260507050154 | 29 | 26 | 0.0 | 0.0 | 0.00 | 0.01 | 0.01 | 93 | 1019.9 |
| 20260507045654 | 29 | 25 | 0.0 | 0.0 | 0.00 | 0.01 | 0.01 | 93 | 1019.9 |
| 20260507045154 | 29 | 26 | 0.0 | 0.0 | 0.00 | 0.01 | 0.01 | 92 | 1020.0 |
| 20260507044654 | 29 | 129 | 0.0 | 0.0 | 0.00 | 0.01 | 0.01 | 92 | 1019.9 |
| 20260507044154 | 29 | 123 | 0.0 | 0.0 | 0.00 | 0.01 | 0.01 | 92 | 1019.9 |
| 20260507043653 | 30 | 129 | 0.0 | 0.0 | 0.00 | 0.01 | 0.01 | 92 | 1019.9 |
| 20260507043154 | 30 | 120 | 0.0 | 0.0 | 0.00 | 0.01 | 0.01 | 92 | 1020.0 |
| 20260507042654 | 30 | 159 | 0.0 | 0.0 | 0.00 | 0.01 | 0.01 | 92 | 1020.1 |
| 20260507042154 | 30 | 138 | 0.0 | 0.0 | 0.00 | 0.01 | 0.01 | 92 | 1020.0 |
| 20260507041654 | 30 | 125 | 0.0 | 0.0 | 0.00 | 0.01 | 0.01 | 92 | 1020.0 |
| 20260507041154 | 30 | 120 | 0.0 | 0.0 | 0.00 | 0.01 | 0.01 | 92 | 1020.1 |
| 20260507040653 | 30 | 133 | 0.0 | 2.0 | 0.00 | 0.01 | 0.01 | 92 | 1020.1 |
| 20260507040154 | 30 | 132 | 0.0 | 0.0 | 0.00 | 0.01 | 0.01 | 92 | 1020.0 |
| 20260507035654 | 30 | 155 | 0.0 | 3.0 | 0.00 | 0.01 | 0.01 | 92 | 1020.1 |
| 20260507035154 | 31 | 211 | 0.0 | 1.0 | 0.00 | 0.01 | 0.01 | 92 | 1020.0 |
| 20260507034653 | 31 | 131 | 0.0 | 2.0 | 0.00 | 0.01 | 0.01 | 91 | 1020.0 |
| 20260507034154 | 31 | 225 | 0.0 | 0.0 | 0.00 | 0.01 | 0.01 | 91 | 1020.0 |
| 20260507033154 | 31 | 139 | 0.0 | 0.0 | 0.00 | 0.01 | 0.01 | 89 | 1019.9 |
| 20260507032654 | 31 | 130 | 0.0 | 0.0 | 0.00 | 0.01 | 0.01 | 88 | 1019.9 |
| 20260507032154 | 31 | 129 | 0.0 | 0.0 | 0.00 | 0.01 | 0.01 | 87 | 1019.9 |
| 20260507031654 | 31 | 142 | 0.0 | 0.0 | 0.00 | 0.01 | 0.01 | 87 | 1019.8 |
| 20260507031154 | 31 | 135 | 0.0 | 0.0 | 0.00 | 0.01 | 0.01 | 86 | 1019.8 |
| 20260507030654 | 31 | 128 | 0.0 | 0.0 | 0.00 | 0.01 | 0.01 | 86 | 1019.7 |
| 20260507025654 | 31 | 150 | 0.0 | 0.0 | 0.00 | 0.01 | 0.01 | 84 | 1019.6 |
| 20260507025155 | 31 | 131 | 0.0 | 0.0 | 0.00 | 0.01 | 0.01 | 84 | 1019.6 |
| 20260507024154 | 32 | 147 | 0.0 | 0.0 | 0.00 | 0.01 | 0.01 | 83 | 1019.5 |
| 20260507023155 | 32 | 153 | 0.0 | 2.0 | 0.00 | 0.01 | 0.01 | 82 | 1019.5 |
| 20260507022654 | 32 | 179 | 0.0 | 0.0 | 0.00 | 0.01 | 0.01 | 82 | 1019.5 |
| 20260507022154 | 33 | 197 | 0.0 | 1.0 | 0.00 | 0.01 | 0.01 | 82 | 1019.5 |
| 20260507021654 | 33 | 156 | 0.0 | 3.0 | 0.00 | 0.01 | 0.01 | 81 | 1019.5 |
| 20260507021155 | 33 | 165 | 0.0 | 3.0 | 0.00 | 0.01 | 0.01 | 80 | 1019.4 |
| 20260507020154 | 34 | 190 | 1.0 | 5.0 | 0.00 | 0.01 | 0.01 | 77 | 1019.4 |
| 20260507015654 | 34 | 182 | 1.0 | 3.0 | 0.00 | 0.01 | 0.01 | 76 | 1019.3 |
| 20260507015154 | 34 | 205 | 1.0 | 6.0 | 0.00 | 0.01 | 0.01 | 76 | 1019.3 |
| 20260507014654 | 35 | 194 | 1.0 | 5.0 | 0.00 | 0.01 | 0.01 | 75 | 1019.3 |
| 20260507014154 | 35 | 183 | 2.0 | 9.0 | 0.00 | 0.01 | 0.01 | 74 | 1019.3 |
| 20260507013654 | 36 | 226 | 2.0 | 5.0 | 0.00 | 0.01 | 0.01 | 73 | 1019.3 |
| 20260507013155 | 36 | 192 | 1.0 | 3.0 | 0.00 | 0.01 | 0.01 | 72 | 1019.3 |
| 20260507012654 | 36 | 145 | 1.0 | 6.0 | 0.00 | 0.01 | 0.01 | 72 | 1019.3 |
| 20260507011154 | 36 | 145 | 2.0 | 7.0 | 0.00 | 0.01 | 0.01 | 71 | 1019.3 |
| 20260507010654 | 37 | 200 | 1.0 | 6.0 | 0.00 | 0.01 | 0.01 | 70 | 1019.3 |
| 20260507010154 | 38 | 180 | 2.0 | 8.0 | 0.00 | 0.01 | 0.01 | 68 | 1019.3 |
| 20260507005155 | 38 | 136 | 2.0 | 9.0 | 0.00 | 0.02 | 0.01 | 69 | 1019.1 |
| 20260507004654 | 38 | 158 | 2.0 | 6.0 | 0.00 | 0.02 | 0.01 | 68 | 1019.1 |
| 20260507004154 | 37 | 207 | 3.0 | 9.0 | 0.00 | 0.02 | 0.01 | 69 | 1019.1 |
| 20260507003654 | 37 | 186 | 2.0 | 6.0 | 0.00 | 0.02 | 0.01 | 69 | 1019.1 |
| 20260507003154 | 37 | 183 | 1.0 | 3.0 | 0.00 | 0.02 | 0.01 | 70 | 1019.0 |
| 20260507002654 | 37 | 182 | 2.0 | 6.0 | 0.00 | 0.02 | 0.01 | 69 | 1019.0 |
| 20260507002154 | 37 | 204 | 4.0 | 8.0 | 0.00 | 0.02 | 0.01 | 68 | 1019.0 |
| 20260507001654 | 37 | 165 | 1.0 | 5.0 | 0.00 | 0.02 | 0.01 | 68 | 1019.0 |
| 20260507001154 | 37 | 130 | 3.0 | 5.0 | 0.00 | 0.02 | 0.01 | 67 | 1019.0 |
| 20260507000654 | 37 | 166 | 3.0 | 6.0 | 0.00 | 0.02 | 0.01 | 67 | 1019.0 |
| 20260507000155 | 37 | 226 | 0.0 | 5.0 | 0.00 | 0.02 | 0.01 | 68 | 1019.0 |
| 20260506235654 | 37 | 203 | 2.0 | 6.0 | 0.00 | 0.02 | 0.01 | 67 | 1019.0 |
| 20260506235155 | 37 | 154 | 1.0 | 8.0 | 0.00 | 0.02 | 0.01 | 67 | 1018.9 |
| 20260506234654 | 38 | 177 | 2.0 | 6.0 | 0.00 | 0.03 | 0.01 | 67 | 1018.9 |
| 20260506234154 | 38 | 177 | 2.0 | 7.0 | 0.00 | 0.03 | 0.01 | 65 | 1018.9 |
| 20260506233154 | 38 | 216 | 2.0 | 6.0 | 0.00 | 0.03 | 0.01 | 65 | 1018.9 |
| 20260506232655 | 38 | 218 | 2.0 | 3.0 | 0.00 | 0.03 | 0.01 | 65 | 1019.0 |
| 20260506231654 | 37 | 60 | 0.0 | 0.0 | 0.00 | 0.04 | 0.01 | 67 | 1019.0 |
| 20260506231155 | 37 | 68 | 1.0 | 5.0 | 0.00 | 0.04 | 0.01 | 66 | 1019.0 |
| 20260506225654 | 37 | 86 | 2.0 | 5.0 | 0.00 | 0.04 | 0.01 | 66 | 1018.9 |
| 20260506225154 | 38 | 23 | 2.0 | 6.0 | 0.00 | 0.04 | 0.01 | 64 | 1018.8 |
| 20260506224654 | 38 | 0 | 0.0 | 1.0 | 0.00 | 0.04 | 0.01 | 63 | 1018.8 |
| 20260506224155 | 38 | 326 | 0.0 | 3.0 | 0.00 | 0.04 | 0.01 | 62 | 1018.8 |
| 20260506223154 | 37 | 297 | 0.0 | 3.0 | 0.01 | 0.05 | 0.01 | 63 | 1018.8 |
| 20260506222654 | 37 | 331 | 0.0 | 1.0 | 0.01 | 0.05 | 0.01 | 63 | 1018.9 |
| 20260506222154 | 37 | 221 | 0.0 | 3.0 | 0.01 | 0.05 | 0.01 | 64 | 1018.9 |
| 20260506221655 | 37 | 319 | 0.0 | 3.0 | 0.01 | 0.05 | 0.01 | 65 | 1018.9 |
| 20260506221154 | 36 | 57 | 0.0 | 3.0 | 0.01 | 0.05 | 0.01 | 66 | 1018.9 |
| 20260506220654 | 36 | 21 | 0.0 | 2.0 | 0.01 | 0.05 | 0.01 | 66 | 1018.9 |
| 20260506220155 | 36 | 86 | 0.0 | 3.0 | 0.01 | 0.05 | 0.01 | 66 | 1018.9 |
| 20260506215654 | 36 | 106 | 0.0 | 3.0 | 0.01 | 0.05 | 0.01 | 65 | 1019.0 |
| 20260506215154 | 36 | 266 | 1.0 | 3.0 | 0.01 | 0.05 | 0.01 | 65 | 1019.0 |
| 20260506214655 | 36 | 1 | 1.0 | 5.0 | 0.01 | 0.05 | 0.01 | 67 | 1019.1 |
| 20260506214154 | 36 | 23 | 3.0 | 8.0 | 0.01 | 0.05 | 0.01 | 65 | 1019.1 |
| 20260506213654 | 36 | 29 | 3.0 | 7.0 | 0.01 | 0.05 | 0.01 | 68 | 1019.0 |
| 20260506213155 | 36 | 308 | 5.0 | 10.0 | 0.00 | 0.05 | 0.00 | 65 | 1019.0 |
| 20260506212654 | 37 | 300 | 3.0 | 7.0 | 0.00 | 0.05 | 0.00 | 64 | 1019.0 |
| 20260506212154 | 37 | 350 | 3.0 | 8.0 | 0.00 | 0.05 | 0.00 | 66 | 1019.0 |
| 20260506211655 | 36 | 8 | 2.0 | 10.0 | 0.00 | 0.05 | 0.00 | 69 | 1019.0 |
| 20260506211154 | 36 | 5 | 6.0 | 13.0 | 0.00 | 0.05 | 0.00 | 70 | 1019.0 |
| 20260506210655 | 36 | 339 | 3.0 | 10.0 | 0.00 | 0.05 | 0.00 | 70 | 1019.1 |
| 20260506210155 | 36 | 349 | 4.0 | 9.0 | 0.00 | 0.05 | 0.00 | 71 | 1019.1 |
| 20260506205655 | 36 | 23 | 2.0 | 7.0 | 0.00 | 0.05 | 0.00 | 71 | 1019.1 |
| 20260506204655 | 35 | 304 | 5.0 | 13.0 | 0.00 | 0.05 | 0.00 | 74 | 1019.0 |
| 20260506204155 | 35 | 338 | 6.0 | 12.0 | 0.00 | 0.05 | 0.00 | 71 | 1019.2 |
| 20260506203655 | 35 | 334 | 6.0 | 12.0 | 0.00 | 0.05 | 0.00 | 72 | 1019.1 |
| 20260506203155 | 35 | 337 | 3.0 | 9.0 | 0.00 | 0.05 | 0.00 | 72 | 1019.2 |
| 20260506202154 | 35 | 13 | 4.0 | 9.0 | 0.00 | 0.05 | 0.00 | 74 | 1019.2 |
| 20260506201655 | 34 | 356 | 2.0 | 9.0 | 0.00 | 0.05 | 0.00 | 76 | 1019.2 |
| 20260506201154 | 34 | 38 | 2.0 | 8.0 | 0.00 | 0.05 | 0.00 | 77 | 1019.2 |
| 20260506200655 | 34 | 40 | 3.0 | 8.0 | 0.00 | 0.05 | 0.00 | 76 | 1019.0 |
| 20260506200155 | 34 | 357 | 5.0 | 10.0 | 0.00 | 0.05 | 0.00 | 75 | 1019.1 |
| 20260506195655 | 34 | 6 | 5.0 | 10.0 | 0.00 | 0.05 | 0.00 | 74 | 1019.0 |
| 20260506195155 | 33 | 14 | 5.0 | 10.0 | 0.00 | 0.05 | 0.00 | 75 | 1019.0 |